Regional Weather Roundup
Issued by NWS

Home | Current Version | Previous Version | Graphics & Text | Print | Product List | Glossary On
Versions: 1 2 3 4 5 6 7 8 9 10 11 12 13 14 15 16 17 18 19 20 21 22 23 24 25 26 27 28 29 30 31 32 33 34 35 36 37 38 39 40 41 42 43 44 45 46 47 48 49 50
000
ASUS43 KLSX 271310
RWRMO

WEATHER SUMMARY FOR MISSOURI
NATIONAL WEATHER SERVICE SPRINGFIELD MO
800 AM CDT TUE SEP 27 2016

NOTE: "FAIR" INDICATES FEW OR NO CLOUDS BELOW 12,000 FEET WITH NO
       SIGNIFICANT WEATHER AND/OR OBSTRUCTIONS TO VISIBILITY.
       CURRENT SKY AND/OR WEATHER CONDITIONS ARE NOT AVAILABLE FOR
       CHILLICOTHE AND FARMINGTON.

MOZ001>031-035>038-043-044-053-054-271400-
...NORTHERN AND WESTERN MISSOURI...

CITY           SKY/WX    TMP DP  RH WIND       PRES   REMARKS
KANSAS CTY INT PTCLDY    53  46  77 SW7       30.05S
KANSAS C DTWN  CLEAR     57  47  69 SW7       30.05S
LEE`S SUMMIT   CLEAR     56  47  71 SW7       30.06S
ST JOSEPH      CLEAR     51  49  92 CALM      30.04S
CHILLICOTHE      N/A     52  49  89 CALM      30.04R
KIRKSVILLE     CLEAR     52  46  80 W6        30.01S

$$
MOZ066>068-077>081-088>096-101>105-271400-
...SOUTHWEST MISSOURI...

CITY           SKY/WX    TMP DP  RH WIND       PRES   REMARKS
SPRINGFIELD    CLEAR     51  44  77 CALM      30.11R
JOPLIN         CLEAR     51  48  89 SW6       30.13S
BRANSON        MOSUNNY   52  45  76 CALM      30.13R

$$
MOZ032>034-039>042-045>050-055>058-069>072-271400-
...CENTRAL MISSOURI...

CITY           SKY/WX    TMP DP  RH WIND       PRES   REMARKS
COLUMBIA       SUNNY     56  46  69 W10       30.05S
JEFFERSON CITY SUNNY     53  48  83 VRB3      30.06S
ROLLA          SUNNY     51  45  79 SW7       30.07R
SEDALIA        CLEAR     56  45  66 SW10      30.07S
WHITEMAN AFB   CLEAR     54  48  78 W7        30.05S
OSAGE BEACH    SUNNY     50  48  93 SW5       30.09S

$$
MOZ051-052-059>065-271400-
...EAST CENTRAL MISSOURI...

CITY           SKY/WX    TMP DP  RH WIND       PRES   REMARKS
ST LOUIS INTL  SUNNY     59  44  57 W9        30.02F
SPIRIT OF STL  SUNNY     56  47  71 SW9       30.02S
ST CHARLES     SUNNY     53  49  86 SW3       30.01F

$$
MOZ072>076-082>087-097>100-106>115-271400-
...SOUTH CENTRAL AND SOUTHEAST MISSOURI...

CITY           SKY/WX    TMP DP  RH WIND       PRES   REMARKS
CAPE GIRARDEAU SUNNY     50  49  96 CALM      30.06S FOG
FARMINGTON     SUNNY     49  47  93 CALM      30.08R
POPLAR BLUFF   SUNNY     53  49  86 NW3       30.07S
WEST PLAINS    SUNNY     54  45  71 W3        30.11S

$$



USA.gov is the U.S. government's official web portal to all federal, state and local government web resources and services.